Location: Bogotá
(4.6533°N, 74.0837°W)
Time: 11:35:25
(UTC+00:00)

ISS - Pass Details

Date: 06 March 2026
Orbit: 416 x 427 km, 51.6° (Epoch: 5 March)

Event Time Altitude Azimuth Distance (km) Brightness Sun altitude
Rises 00:38:02 0° 230° (SW) 2,375 0.9 -22.9°
Reaches altitude 10° 00:40:15 10° 239° (WSW) 1,508 -0.1 -23.4°
Maximum altitude 00:43:22 34° 306° (NW) 714 -2.3 -24.2°
Enters shadow 00:43:23 34° 306° (NW) 714 -2.3 -24.2°
